Regional Weather Roundup
Issued by NWS Albany, NY

Home | Current Version | Previous Version | Text Only | Print | Product List | Glossary On
Versions: 1 2 3 4 5 6 7 8 9 10 11 12 13 14 15 16 17 18 19 20 21 22 23 24 25 26 27
000
ASUS41 KALY 280010
RWRALY

NEW YORK STATE HOURLY WEATHER ROUNDUP
NATIONAL WEATHER SERVICE ALBANY NY
800 PM EDT WED JUL 27 2016

NOTE: "FAIR" INDICATES FEW OR NO CLOUDS BELOW 12,000 FEET WITH NO
SIGNIFICANT WEATHER AND/OR NO OBSTRUCTIONS TO VISIBILITY.

NYZ032-033-038>043-046>054-057>066-NYZ062>081-082-084-280100-
EAST


CITY           SKY/WX    TMP DP  RH WIND       PRES   REMARKS
ALBANY         PTCLDY    83  61  47 NW5       29.89R
GLENS FALLS    CLEAR     83  62  49 SW7       29.87R
POUGHKEEPSIE   CLEAR     85  61  44 CALM      29.88R
NEWBURGH       CLEAR     86  63  45 W12       29.92S
MONTGOMERY     CLEAR     79  67  66 W3        29.90S
WHITE PLAINS   PTCLDY    82  63  52 S5        29.90S
ISLIP          PTCLDY    78  70  76 S7        29.90S
NEW YORK CITY  PTCLDY    88  64  44 S8        29.88R
CENTRAL PARK   CLEAR     84  65  52 CALM      29.91S
$$

NYZ005>009-017-018-044>046-055-056-280100-
CENTRAL


CITY           SKY/WX    TMP DP  RH WIND       PRES   REMARKS
FULTON         CLEAR     81  66  60 CALM      29.90S
SYRACUSE       MOCLDY    82  64  54 CALM      29.89S
ROME           CLEAR     81  62  52 SW3       29.92R
ELMIRA         CLEAR     81  62  52 CALM      29.92R
BINGHAMTON     CLEAR     79  57  46 N5        29.97S
MONTICELLO     CLEAR     79  61  53 W3        29.98R
$$

NYZ026>034-041>043-087-280100-
NORTH


CITY           SKY/WX    TMP DP  RH WIND       PRES   REMARKS
WATERTOWN      PTCLDY    79  63  57 SW6       29.88F
FORT DRUM      NOT AVBL
MASSENA        CLEAR     77  62  59 SW6       29.85S
SARANAC LAKE   MOCLDY    76  57  51 SW5       29.93R
PLATTSBURGH    PTCLDY    80  70  71 CALM      29.83S
$$

NYZ001>004-010>016-019>021-085-280100-
WEST


CITY           SKY/WX    TMP DP  RH WIND       PRES   REMARKS
NIAGARA FALLS  MOCLDY    83  61  47 SW7       29.91S
BUFFALO        MOCLDY    80  63  55 SW13      29.93R
DUNKIRK        CLEAR     80  63  55 SW6       29.94S
JAMESTOWN      CLEAR     77  59  53 NW6       30.00R
WELLSVILLE     CLEAR     79  57  46 NW6       30.02S
ROCHESTER      MOCLDY    84  59  42 W12       29.92R
PENN YAN       CLEAR     83  61  47 W3        29.95R
$$

             KEY
       WCI = WIND CHILL INDEX
       VSB = VISIBILITY
       HX  = HEAT INDEX
$$




USA.gov is the U.S. government's official web portal to all federal, state and local government web resources and services.